Find Starlink 3781

NORAD ID: 52272 Int'l Des: 2022-041 Owner: SPXS Country: US Constellation: starlink operational
LEOCIRCULAR

当前视图

正在加载3D地球...

About Starlink 3781

Starlink 3781 (NORAD 52272) is a starlink constellation satellite (v1.5) launched Apr 21, 2022 by SPXS of US. It operates in LEO, CIRCULAR orbit with a mass of 297.00 kg.

即将过境

Passes for default location (London). Set your location on the main map for personalized predictions.

高度历史

Loading altitude history...

两行轨道根数

1 52272U 22041M 26254.25540974 .00000769 00000-0 36548-4 0 9994
2 52272 53.1608 343.9623 0000980 81.8898 278.2214 15.31698583242544
Epoch: Sep 11, 2026 • Age: 11 hours

当前状态

高度 471.2 km
远地点 / 近地点 N/A
速度 7.63 km/s
星下点 24.31°N, 112.35°E
发射日期 Apr 21, 2022
运行时间 4.3 years
类型 internet

技术详情

分类 Payload
质量 297.00 kg
干质量 275.00 kg
总质量 297.00 kg
长度 0.20 m
直径 2.80 m
跨度 9.00 m
形状 Box + pan
制造商 SPXS
平台类型 Starlink
阶段状态 In Orbit
所有者/国家 SPXS/US

Most Searched